Wind_Speed
14 14 14 14 14 13 13 13 13 13 12 12 12 12 12 12 11 11 11 11 10 10 10 10 10 10 9 9 9 8 8 7 7 7 7 6 6 6 5 5 4 4 4
15 15 15 15 15 15 15 15 15 14 14 13 13 13 13 13 13 13 13 13 13 12 12 12 12 12 11 11 11 10 10 9 9 8 8 7 7 7 6 6 6 5 5
17 17 17 17 17 16 16 16 16 16 15 14 14 14 14 14 14 14 15 15 15 15 14 14 14 14 13 13 13 12 12 11 11 10 10 9 9 8 8 8 7 7 6
18 18 17 18 18 18 18 18 18 17 17 16 16 16 16 16 16 16 16 16 16 16 16 16 15 15 15 14 14 14 13 13 12 12 11 11 10 10 10 9 9 8 8
19 19 18 19 19 19 19 19 19 19 19 18 18 18 18 18 18 18 18 17 17 17 17 17 17 17 16 16 15 15 14 14 13 13 13 12 12 12 11 11 11 10 10
20 20 20 20 20 20 21 20 20 20 20 20 20 20 20 19 19 19 19 19 18 19 19 19 19 19 18 18 17 17 16 16 15 15 14 14 14 13 13 13 13 12 12
20 20 20 20 20 21 21 21 21 21 21 21 21 22 21 21 21 20 20 20 20 20 20 20 20 20 20 20 19 19 19 18 18 17 17 16 15 15 15 15 15 15 14
21 21 21 21 21 21 21 22 22 22 22 22 22 22 22 23 23 23 23 22 22 21 21 21 21 21 21 21 21 21 21 20 20 19 19 18 17 17 16 16 17 17 16
22 22 22 22 21 21 21 21 21 22 22 23 23 23 23 23 24 24 24 24 24 23 23 23 23 23 23 23 23 23 23 22 22 21 21 20 19 19 18 18 18 18 18
22 22 23 23 22 22 22 22 22 22 23 23 24 24 24 23 24 24 25 25 26 25 25 25 25 25 25 25 25 25 25 24 24 24 23 22 21 20 19 19 19 20 20
22 23 23 23 23 23 23 24 23 23 23 23 24 24 24 24 24 25 25 25 26 27 27 26 26 26 27 27 27 27 27 26 26 26 25 24 24 23 22 21 21 21 21
23 23 23 24 24 24 24 24 24 24 24 23 23 24 24 25 25 25 26 26 26 27 28 28 27 28 28 29 29 28 29 28 27 27 27 26 26 25 24 23 23 23 23
24 24 24 24 24 24 24 24 24 25 24 24 25 25 25 25 25 25 25 25 25 26 28 29 29 30 30 30 30 30 30 30 29 28 28 28 27 27 26 26 25 25 24
25 25 25 25 25 25 25 25 25 25 25 25 26 26 25 26 26 26 26 27 26 26 28 29 30 31 32 32 32 32 32 31 31 30 30 29 29 28 28 27 27 27 26
26 26 26 26 26 26 26 26 26 26 26 27 27 27 27 27 26 27 27 28 28 28 28 30 31 32 32 33 33 33 33 33 33 33 32 32 32 31 31 30 29 29 29
26 26 27 27 26 26 27 26 26 26 26 27 27 27 27 27 27 27 27 28 29 29 30 31 32 33 33 34 35 36 35 35 35 35 34 34 34 34 33 33 32 31 31
27 27 27 27 27 27 27 27 27 28 27 27 27 27 27 28 28 27 27 28 29 30 31 32 33 34 34 35 37 37 38 37 37 37 36 35 35 35 35 35 34 34 33
28 28 28 28 28 28 27 27 27 28 28 27 27 28 28 28 28 28 28 29 30 30 31 31 32 31 32 35 36 38 39 39 38 38 38 38 37 37 37 37 37 36 36
29 28 28 28 29 28 28 27 28 28 28 28 28 28 27 28 28 29 29 30 30 30 31 31 32 31 32 34 36 37 38 39 38 39 39 39 39 39 38 39 39 38 38
29 29 29 29 29 29 29 28 28 28 28 28 28 29 29 29 29 29 30 30 30 31 31 31 31 33 33 34 35 37 39 38 39 39 39 40 40 40 40 40 40 40 40
30 30 30 30 30 30 30 29 28 28 28 28 29 29 29 29 29 30 30 30 30 30 32 32 32 32 33 34 36 37 38 38 39 39 40 40 41 41 41 42 42 41 41
31 31 31 31 31 31 30 29 28 28 28 29 29 29 29 29 30 30 30 30 30 30 31 32 33 32 32 33 35 36 37 38 39 39 40 40 41 42 42 42 41 41 42
31 31 31 31 31 31 31 30 29 28 28 29 29 29 29 29 30 30 30 30 30 30 30 31 31 32 32 32 33 34 34 35 38 38 39 40 40 41 42 42 43 42 43
32 32 32 32 31 31 32 31 30 29 29 29 29 29 29 30 30 30 30 30 30 30 30 30 30 31 31 32 33 34 35 35 37 38 39 40 40 41 42 42 43 44 44
33 33 32 32 32 31 31 31 31 31 30 30 30 30 30 30 30 30 30 30 30 30 31 31 31 31 31 32 33 33 34 35 36 38 39 39 40 41 43 43 43 44 45
33 33 33 33 32 32 31 31 32 32 31 31 31 31 31 30 30 30 30 30 30 30 31 31 31 31 32 33 33 33 33 35 35 37 39 39 39 40 42 43 44 44 45
Wind_Direction
260 260 260 260 260 261 262 262 261 259 257 256 255 252 250 249 249 249 249 249 247 247 246 245 242 243 244 244 245 247 249 251 249 244 242 240 236 233 229 228 225 222 218
261 260 259 259 259 259 261 262 261 260 258 257 256 255 252 250 251 251 251 251 250 250 250 248 246 246 247 247 248 250 250 250 249 247 245 243 242 241 238 236 234 229 227
261 260 258 258 258 258 259 260 260 259 258 257 257 257 255 253 252 252 252 252 250 250 251 249 248 248 248 249 249 250 250 250 249 248 247 247 246 246 244 242 242 240 237
261 260 259 258 259 259 260 259 260 259 258 258 258 257 257 255 254 254 254 253 252 251 251 248 248 248 248 249 250 249 248 248 249 248 248 249 249 248 246 245 246 247 245
261 260 260 259 259 259 260 260 260 259 258 258 258 259 259 258 256 255 254 253 253 253 253 250 247 248 248 249 250 248 247 248 248 248 248 249 250 250 248 247 248 248 248
262 262 262 261 261 261 261 260 260 260 259 258 259 259 259 259 257 255 254 253 253 253 253 251 248 247 248 248 248 248 248 248 249 248 250 250 251 251 250 249 248 249 249
263 263 263 262 262 262 262 260 259 258 258 258 257 258 258 258 256 256 256 255 254 254 253 253 250 247 247 248 248 249 250 250 250 250 251 251 252 253 252 251 250 250 250
263 263 264 263 263 263 262 261 259 259 258 257 257 258 258 258 258 257 257 256 255 254 253 253 252 249 248 248 248 249 250 251 252 252 253 253 252 253 254 253 252 251 252
265 266 266 266 265 264 262 261 260 259 260 260 258 258 258 257 258 258 258 256 255 254 253 252 253 252 252 251 250 249 250 251 252 252 253 253 251 253 254 254 253 251 251
266 267 268 267 266 264 262 260 260 260 260 260 260 259 258 257 257 258 258 257 255 254 254 253 254 254 253 252 252 251 250 250 252 251 252 252 251 252 253 254 254 252 251
266 267 267 267 266 264 262 259 259 259 259 260 260 259 259 258 258 258 258 256 256 255 253 252 253 255 254 253 252 252 251 250 251 250 250 251 252 252 253 254 254 253 252
266 267 267 266 265 264 262 260 258 257 259 260 260 260 261 261 259 258 257 256 257 256 253 253 253 255 255 254 253 252 252 250 250 250 249 249 251 252 253 254 254 254 253
267 267 266 266 265 263 262 260 259 258 260 261 261 261 263 262 260 260 257 257 257 257 254 253 254 255 255 255 254 252 252 251 250 250 250 250 250 251 252 253 254 255 255
266 266 266 266 265 264 263 262 261 259 260 261 260 261 263 262 261 261 260 259 260 260 258 256 257 257 256 255 254 253 253 252 250 250 250 250 249 249 250 252 254 255 255
265 266 266 266 265 264 263 262 261 260 260 260 260 260 262 263 263 262 262 261 262 263 263 261 261 259 257 255 254 253 253 252 251 251 251 251 250 249 250 252 253 255 256
264 264 266 265 264 263 263 261 260 260 260 261 262 261 260 262 262 261 261 261 262 264 264 264 262 260 259 257 255 253 253 253 251 251 252 251 251 250 251 252 253 254 256
263 263 264 264 263 263 262 261 260 259 261 263 262 262 261 262 262 262 262 262 263 264 265 264 263 261 259 258 256 255 254 254 253 252 251 251 251 251 252 252 253 254 255
263 263 264 263 262 263 263 262 262 261 262 263 262 262 262 263 263 263 263 262 264 265 265 264 263 262 263 259 257 256 256 254 254 253 252 252 252 252 252 253 254 255 255
263 263 263 263 263 264 263 263 262 263 263 263 262 260 262 264 263 263 263 262 264 265 265 266 263 263 264 262 259 257 256 254 253 252 252 252 253 252 253 254 254 255 255
262 262 263 263 263 263 263 264 264 263 264 264 262 260 263 264 263 263 264 265 266 266 266 266 264 264 265 264 260 258 255 254 253 253 251 251 252 253 253 253 253 255 256
262 262 262 262 263 263 263 263 263 263 263 263 262 261 264 265 265 264 265 267 268 268 266 266 265 266 267 267 262 258 255 253 253 253 252 252 252 253 254 253 253 254 255
261 262 262 263 263 262 261 261 262 263 263 264 263 263 263 265 267 267 265 267 268 270 268 266 265 266 268 269 265 259 256 254 254 255 253 252 252 252 253 254 255 255 256
261 261 262 263 262 261 261 261 261 261 261 263 263 264 265 266 267 268 268 269 269 269 269 267 266 266 268 269 265 260 257 256 256 254 253 253 253 252 251 252 254 255 256
260 261 262 262 262 261 260 260 259 260 261 263 264 265 266 267 267 267 268 270 270 270 269 268 267 268 269 269 266 262 259 259 258 256 254 254 254 253 252 253 256 257 256
259 260 261 262 262 261 259 259 259 259 260 262 263 265 266 267 266 267 268 269 269 269 269 268 269 269 270 269 268 265 262 260 259 257 256 256 255 254 254 254 255 256 257
258 259 260 261 261 260 259 259 259 259 260 261 262 263 265 266 266 266 267 268 269 270 269 268 268 270 270 270 269 268 264 260 260 259 258 258 257 256 255 255 256 257 259
Height
5831 5831 5831 5832 5833 5833 5834 5835 5835 5836 5837 5838 5839 5840 5841 5842 5843 5844 5845 5846 5847 5848 5849 5851 5852 5853 5854 5855 5856 5856 5857 5858 5859 5860 5860 5861 5862 5862 5863 5863 5864 5864 5865
5828 5828 5829 5829 5830 5831 5831 5832 5833 5833 5834 5835 5836 5837 5838 5839 5841 5842 5843 5844 5845 5846 5847 5848 5850 5851 5852 5853 5854 5855 5856 5857 5857 5858 5859 5860 5861 5861 5862 5863 5863 5864 5864
5824 5825 5825 5826 5827 5827 5828 5829 5830 5830 5831 5832 5833 5834 5835 5837 5838 5839 5840 5841 5843 5844 5845 5846 5847 5849 5850 5851 5852 5853 5854 5855 5856 5857 5858 5859 5860 5860 5861 5861 5862 5863 5863
5821 5821 5822 5823 5823 5824 5825 5826 5826 5827 5828 5829 5830 5831 5832 5833 5835 5836 5837 5838 5840 5841 5842 5843 5845 5846 5847 5849 5850 5851 5852 5853 5854 5855 5856 5857 5858 5859 5859 5860 5861 5861 5862
5817 5818 5818 5819 5819 5820 5821 5822 5823 5823 5824 5825 5826 5828 5829 5830 5831 5832 5834 5835 5836 5838 5839 5840 5842 5843 5845 5846 5847 5848 5849 5851 5852 5853 5854 5855 5856 5856 5857 5858 5859 5859 5860
5813 5813 5814 5815 5815 5816 5817 5817 5818 5819 5820 5821 5822 5823 5825 5826 5827 5828 5830 5831 5833 5834 5835 5836 5838 5840 5841 5843 5844 5845 5847 5848 5849 5850 5851 5852 5853 5854 5855 5856 5856 5857 5858
5808 5809 5810 5810 5811 5811 5812 5813 5814 5815 5816 5817 5818 5819 5820 5822 5823 5824 5825 5827 5828 5830 5831 5832 5834 5836 5837 5839 5840 5842 5843 5845 5846 5847 5848 5849 5850 5851 5852 5853 5854 5855 5855
5804 5804 5805 5806 5806 5807 5807 5808 5809 5810 5811 5812 5813 5814 5815 5817 5818 5820 5821 5822 5824 5826 5827 5828 5830 5832 5833 5835 5836 5838 5839 5841 5843 5844 5845 5846 5847 5848 5849 5850 5851 5851 5852
5799 5800 5800 5801 5802 5802 5803 5803 5804 5805 5806 5807 5808 5809 5810 5812 5813 5815 5816 5817 5819 5821 5822 5824 5825 5827 5829 5830 5832 5834 5835 5837 5838 5840 5841 5842 5843 5844 5845 5846 5847 5848 5849
5795 5795 5795 5796 5796 5797 5798 5798 5799 5800 5801 5802 5803 5804 5805 5807 5808 5809 5811 5812 5814 5815 5817 5819 5820 5822 5824 5825 5827 5829 5830 5832 5834 5835 5837 5838 5839 5840 5841 5842 5843 5844 5845
5790 5790 5790 5791 5791 5792 5792 5793 5794 5795 5796 5797 5798 5799 5800 5802 5803 5804 5805 5807 5808 5810 5811 5813 5815 5816 5818 5820 5822 5824 5825 5827 5829 5830 5832 5833 5835 5836 5837 5838 5839 5840 5841
5785 5785 5785 5785 5786 5786 5787 5788 5789 5790 5790 5792 5793 5794 5795 5796 5797 5798 5800 5801 5803 5804 5806 5807 5809 5811 5812 5814 5816 5818 5819 5821 5823 5825 5826 5828 5829 5831 5832 5833 5834 5835 5836
5779 5780 5780 5780 5780 5780 5781 5782 5783 5784 5785 5786 5787 5788 5790 5790 5792 5793 5794 5795 5796 5798 5799 5801 5802 5804 5806 5808 5809 5811 5813 5815 5817 5819 5821 5822 5824 5825 5827 5828 5829 5831 5832
5773 5774 5774 5774 5774 5775 5775 5776 5777 5778 5779 5780 5782 5783 5784 5785 5786 5787 5788 5789 5790 5792 5793 5794 5796 5797 5799 5801 5803 5805 5806 5809 5810 5813 5815 5816 5818 5820 5821 5823 5824 5825 5826
5767 5767 5767 5768 5768 5769 5769 5770 5771 5772 5773 5774 5775 5776 5777 5778 5779 5780 5781 5782 5784 5785 5786 5787 5788 5789 5791 5793 5795 5797 5799 5801 5803 5806 5808 5810 5811 5813 5815 5817 5818 5819 5821
5761 5761 5761 5761 5762 5763 5763 5764 5765 5766 5767 5767 5768 5769 5770 5771 5772 5773 5775 5775 5776 5777 5779 5779 5780 5781 5783 5785 5787 5789 5791 5793 5795 5798 5800 5802 5804 5806 5808 5810 5811 5813 5814
5754 5754 5754 5755 5755 5756 5757 5758 5758 5759 5760 5761 5762 5762 5763 5764 5765 5766 5767 5768 5769 5770 5771 5772 5772 5773 5775 5776 5778 5780 5782 5785 5787 5789 5792 5794 5796 5798 5801 5802 5804 5806 5807
5747 5747 5748 5748 5749 5750 5751 5751 5752 5752 5753 5754 5755 5755 5757 5758 5758 5759 5760 5761 5761 5762 5763 5764 5764 5765 5766 5768 5769 5771 5773 5775 5778 5781 5783 5786 5788 5790 5792 5794 5796 5798 5799
5740 5741 5741 5742 5742 5743 5744 5744 5745 5746 5746 5747 5747 5748 5749 5750 5751 5751 5752 5753 5753 5754 5755 5755 5756 5757 5757 5758 5759 5761 5763 5766 5768 5771 5774 5777 5779 5782 5784 5786 5788 5790 5791
5733 5734 5735 5735 5735 5736 5737 5737 5738 5739 5739 5739 5740 5741 5742 5743 5743 5744 5744 5744 5745 5745 5746 5747 5747 5748 5748 5748 5749 5751 5754 5756 5759 5761 5764 5767 5770 5772 5775 5777 5779 5781 5783
5726 5726 5727 5728 5728 5729 5730 5730 5731 5731 5732 5732 5733 5734 5734 5735 5735 5736 5736 5737 5737 5737 5738 5738 5739 5739 5740 5740 5740 5742 5744 5746 5749 5751 5754 5757 5760 5763 5765 5767 5770 5772 5773
5718 5719 5719 5720 5721 5722 5722 5723 5724 5724 5724 5725 5725 5726 5727 5727 5727 5728 5728 5729 5729 5729 5729 5730 5731 5731 5731 5731 5732 5732 5735 5738 5739 5741 5744 5747 5750 5753 5755 5758 5760 5762 5764
5709 5711 5711 5712 5713 5714 5715 5715 5716 5717 5717 5718 5718 5719 5719 5719 5720 5720 5721 5721 5721 5721 5722 5722 5723 5723 5723 5723 5723 5724 5726 5728 5730 5732 5734 5737 5740 5742 5745 5747 5750 5752 5754
5701 5702 5703 5704 5705 5706 5707 5708 5709 5710 5710 5711 5711 5711 5711 5712 5712 5713 5713 5713 5713 5714 5714 5714 5715 5715 5715 5715 5716 5716 5718 5719 5721 5723 5725 5727 5730 5733 5735 5737 5740 5741 5743
5692 5693 5694 5695 5696 5697 5698 5699 5700 5702 5703 5703 5703 5704 5704 5704 5705 5705 5705 5705 5706 5706 5706 5706 5707 5707 5707 5707 5707 5708 5709 5710 5711 5714 5716 5718 5721 5723 5725 5727 5729 5730 5732
5683 5684 5685 5687 5688 5689 5690 5691 5692 5693 5694 5695 5696 5696 5696 5697 5697 5697 5697 5697 5698 5698 5698 5698 5698 5699 5699 5699 5699 5699 5700 5702 5703 5705 5707 5709 5710 5712 5714 5716 5718 5719 5721